#timestamp,LO_Frequency,Hit,StdDev 
1511697615.3,286047004.4,N
1511697635.1,286047005.2,N
1511697655.8,286047004.9,N
1511697675.7,286047005.5,N
1511697695.5,286047005.3,N
1511697715.3,286047007.6,N
1511697735.2,286047007.1,N
1511697755.0,286047004.5,N
1511697755.9,286047004.5,N
1511697775.7,286047006.3,N
1511697795.6,286047005.3,N
1511697815.4,286047009.8,Y
1511697835.2,286047002.6,P
1511697855.1,286046998.6,N
1511697856.0,286046998.6,N
1511697875.8,286046996.5,N
1511697895.6,286046998.4,N
1511697915.5,286046998.6,N
1511697935.3,286047000.2,N
1511697955.1,286047001.2,N
1511697975.9,286046999.9,N
1511697995.7,286046995.6,N
1511698015.5,286046999.3,N
1511698035.4,286047004.1,N
1511698055.2,286046998.4,N
1511698075.0,286046996.7,N
1511698075.9,286046996.7,N
1511698095.8,286046997.2,N
1511698115.6,286046998.7,N
1511698135.4,286047001.2,N
1511698155.2,286046998.3,N
1511698175.1,286047000.8,N
1511698176.0,286047000.8,N
1511698195.8,286047001.1,N
1511698215.6,286046995.3,N
1511698235.5,286046998.3,N
1511698255.3,286046997.7,N
1511698275.1,286046995.9,N
1511698295.9,286046992.7,N
1511698315.7,286046989.0,Y
1511698335.5,286046991.6,P
1511698355.4,286046987.3,P
1511698375.2,286046991.4,N
1511698395.0,286046987.0,Y
1511698395.9,286046987.0,P
1511698415.8,286046997.1,N
1511698435.6,286046998.1,N
1511698455.4,286046999.3,N
1511698475.3,286046999.8,N
1511698495.1,286047001.0,N
1511698496.0,286047001.0,N
1511698515.8,286047001.7,N
1511698535.7,286047005.9,N
1511698555.5,286047001.7,N
1511698575.3,286046999.7,N
1511698595.2,286047001.5,N
1511698615.9,286047005.9,N
1511698635.7,286047004.4,N
1511698655.5,286047002.2,N
1511698675.4,286047001.6,N
1511698695.2,286047004.9,N
1511698715.0,286047006.7,N
1511698715.9,286047006.7,N
1511698735.8,286047007.6,N
1511698755.6,286047007.2,N
1511698775.4,286047007.2,N
1511698795.3,286047006.5,N
1511698815.1,286047006.4,N
1511698816.0,286047006.4,N
1511698835.8,286047006.0,N
1511698855.7,286047001.4,N
1511698875.5,286047005.7,N
1511698895.3,286047005.7,N
1511698915.1,286047001.3,N
1511698935.9,286047003.1,N
1511698955.7,286047002.6,N
1511698975.5,286047000.8,N
1511698995.4,286046998.2,N
1511699015.2,286047000.7,N
1511699035.0,286047002.1,N
1511699035.9,286047002.1,N
1511699055.8,286047002.5,N
1511699075.6,286047002.3,N
1511699095.4,286047005.6,N
1511699115.3,286047003.9,N
1511699135.1,286047002.6,N
1511699136.0,286047002.6,N
1511699155.8,286047000.6,N
1511699175.7,286046999.5,N
1511699195.5,286046995.3,N
1511699215.3,286047000.6,N
1511699235.2,286047000.1,N
1511699255.9,286046998.7,N
1511699275.7,286046995.3,N
1511699295.5,286046997.9,N
1511699315.4,286046998.3,N
1511699335.2,286046995.2,N
1511699355.0,286046997.5,N
1511699355.9,286046997.5,N
1511699375.8,286046995.0,N
1511699395.6,286046998.1,N
1511699415.4,286047002.6,N
1511699435.3,286047001.9,N
1511699455.1,286047001.3,N
1511699475.8,286047002.3,N
1511699495.7,286047002.4,N
1511699515.5,286046998.2,N
1511699535.3,286046999.4,N
1511699555.2,286046997.6,N
1511699575.9,286046999.0,N
1511699595.7,286047000.3,N
1511699615.6,286047002.2,N
1511699635.4,286047003.9,N
1511699655.2,286047005.4,N
1511699675.0,286047003.1,N
1511699676.0,286047003.1,N
1511699695.8,286046999.9,N
1511699715.6,286047000.3,N
1511699735.4,286047003.8,N
1511699755.3,286047003.0,N
1511699775.1,286047007.0,N
1511699795.8,286047005.5,N
1511699815.7,286047003.8,N
1511699835.5,286047000.7,N
1511699855.3,286047002.7,N
1511699875.2,286047004.3,N
1511699895.9,286047007.2,N
1511699915.7,286047007.1,N
1511699935.6,286047004.5,N
1511699955.4,286047000.9,N
1511699975.2,286047001.2,N
1511699995.0,286047001.2,N
1511699996.0,286047001.2,N
1511700015.8,286046998.4,N
1511700035.6,286046999.3,N
1511700055.4,286046999.3,N
1511700075.3,286047000.3,N
1511700095.1,286046999.8,N
1511700115.8,286047001.8,N
1511700135.7,286047002.1,N
1511700155.5,286047002.3,N
1511700175.3,286047002.0,N
1511700195.2,286046999.7,N
1511700215.9,286046998.4,N
1511700235.7,286046995.2,N
1511700255.6,286046994.9,N
1511700275.4,286046997.2,N
1511700295.2,286046998.3,N
1511700315.0,286046997.6,N
1511700316.0,286046997.6,N
1511700335.8,286046994.9,N
1511700355.6,286046991.7,N
1511700375.4,286046993.2,N
1511700395.3,286046989.0,Y
1511700415.1,286046989.6,P
1511700435.8,286046987.7,N
1511700455.7,286046987.4,N
1511700475.5,286046986.9,N
1511700495.3,286046983.8,Y
1511700515.2,286046992.3,P
1511700535.0,286046991.1,P
1511700535.9,286046991.1,P
1511700555.8,286046989.0,Y
1511700575.6,286046998.8,P
1511700595.4,286047001.2,N
1511700615.2,286046998.8,N
1511700635.1,286046996.8,N
1511700636.0,286046996.8,N
1511700655.8,286046999.8,N
1511700675.6,286047004.4,N
1511700695.5,286046998.6,N
1511700715.3,286046996.8,N
1511700735.1,286046999.0,N
1511700755.9,286046999.9,N
1511700775.7,286047002.4,N
1511700795.5,286047002.7,N
1511700815.4,286047005.3,N
1511700835.2,286047007.6,N
1511700855.0,286047002.9,N
1511700855.9,286047002.9,N
1511700875.8,286047009.0,N
1511700895.6,286047009.6,N
1511700915.4,286047012.6,N
1511700935.3,286047015.0,Y
1511700955.1,286047010.0,P
1511700956.0,286047010.0,N
1511700975.8,286047011.7,P
1511700995.6,286047011.2,N
1511701015.5,286047012.1,Y
1511701035.3,286047000.0,P
1511701055.1,286046999.8,N
1511701075.9,286047004.1,N
1511701095.7,286047004.8,N
1511701115.5,286047007.4,N
1511701135.4,286047006.4,N
1511701155.2,286047009.8,N
1511701175.0,286047012.1,Y
1511701175.9,286047012.1,P
1511701195.8,286047006.3,N
